E25HML-13 Weather Reports


time (UTC)temp
C
wind
direction
speed
KPH
gust
KPH
rain 1hr
cm
rain 24hr
cm
rain mn
cm
humidity
%
barometer
mb
20260508044844 34 0.0 0.0 0.00 0.00 0.00 64 1006.5
20260508044344 34 0.0 0.0 0.00 0.00 0.00 64 1006.5
20260508043844 34 0.0 0.0 0.00 0.00 0.00 64 1006.6
20260508043344 34 0.0 0.0 0.00 0.00 0.00 64 1006.8
20260508042844 33 0.0 0.0 0.00 0.00 0.00 65 1006.9
20260508042345 33 0.0 0.0 0.00 0.00 0.00 64 1006.9
20260508041845 34 0.0 0.0 0.00 0.00 0.00 64 1007.0
20260508041344 33 0.0 0.0 0.00 0.00 0.00 65 1007.1
20260508040845 33 0.0 0.0 0.00 0.00 0.00 64 1007.3
20260508040345 33 0.0 0.0 0.00 0.00 0.00 64 1007.3
20260508035844 34 0.0 0.0 0.00 0.00 0.00 65 1007.2
20260508035344 33 0.0 0.0 0.00 0.00 0.00 64 1007.3
20260508034844 33 0.0 0.0 0.00 0.00 0.00 64 1007.3
20260508034343 33 0.0 0.0 0.00 0.00 0.00 64 1007.3
20260508033844 33 0.0 0.0 0.00 0.00 0.00 64 1007.4
20260508033345 33 0.0 0.0 0.00 0.00 0.00 64 1007.6
20260508032844 33 0.0 0.0 0.00 0.00 0.00 65 1007.6
20260508032343 33 0.0 0.0 0.00 0.00 0.00 66 1007.7
20260508031843 33 0.0 0.0 0.00 0.00 0.00 66 1007.8
20260508031344 33 0.0 0.0 0.00 0.00 0.00 66 1007.8
20260508030844 33 0.0 0.0 0.00 0.00 0.00 65 1007.7
20260508030344 33 0.0 0.0 0.00 0.00 0.00 66 1007.8
20260508025844 33 0.0 0.0 0.00 0.00 0.00 66 1007.7
20260508025343 33 0.0 0.0 0.00 0.00 0.00 67 1007.8
20260508024843 32 0.0 0.0 0.00 0.00 0.00 67 1007.9
20260508024343 32 0.0 0.0 0.00 0.00 0.00 67 1007.9
20260508023843 32 0.0 0.0 0.00 0.00 0.00 67 1007.9
20260508023344 32 0.0 0.0 0.00 0.00 0.00 67 1008.0
20260508022844 33 0.0 0.0 0.00 0.00 0.00 66 1007.8
20260508022344 32 0.0 0.0 0.00 0.00 0.00 66 1007.7
20260508021844 32 0.0 0.0 0.00 0.00 0.00 66 1007.8
20260508021344 32 0.0 0.0 0.00 0.00 0.00 66 1007.7
20260508020844 32 0.0 0.0 0.00 0.00 0.00 66 1007.7
20260508020344 32 0.0 0.0 0.00 0.00 0.00 67 1007.8
20260508015844 32 0.0 0.0 0.00 0.00 0.00 67 1007.8
20260508015344 32 0.0 0.0 0.00 0.00 0.00 67 1007.7
20260508014844 32 0.0 0.0 0.00 0.00 0.00 67 1007.6
20260508014344 32 0.0 0.0 0.00 0.00 0.00 67 1007.7
20260508013843 32 0.0 0.0 0.00 0.00 0.00 66 1007.6
20260508013344 32 0.0 0.0 0.00 0.00 0.00 66 1007.6
20260508012844 32 0.0 0.0 0.00 0.00 0.00 68 1007.5
20260508012344 32 0.0 0.0 0.00 0.00 0.00 68 1007.6
20260508011844 32 0.0 0.0 0.00 0.00 0.00 67 1007.5
20260508011344 33 0.0 0.0 0.00 0.00 0.00 63 1007.4
20260508010844 33 0.0 0.0 0.00 0.00 0.00 63 1007.4
20260508010344 33 0.0 0.0 0.00 0.00 0.00 63 1007.2
20260508005844 33 0.0 0.0 0.00 0.00 0.00 65 1007.2
20260508005344 33 0.0 0.0 0.00 0.00 0.00 64 1007.1
20260508004844 33 0.0 0.0 0.00 0.00 0.00 64 1007.1
20260508004343 33 0.0 0.0 0.00 0.00 0.00 63 1007.0
20260508003843 33 0.0 0.0 0.00 0.00 0.00 62 1006.9
20260508003344 33 0.0 0.0 0.00 0.00 0.00 62 1006.7
20260508002844 33 0.0 0.0 0.00 0.00 0.00 61 1006.8
20260508002344 33 0.0 0.0 0.00 0.00 0.00 61 1006.8
20260508001843 33 0.0 0.0 0.00 0.00 0.00 61 1006.7
20260508001343 34 0.0 0.0 0.00 0.00 0.00 59 1006.7
20260508000843 34 0.0 0.0 0.00 0.00 0.00 59 1006.6
20260508000343 33 0.0 0.0 0.00 0.00 0.00 61 1006.7
20260507235843 33 0.0 0.0 0.00 0.00 0.00 62 1006.6
20260507235343 33 0.0 0.0 0.00 0.00 0.00 62 1006.5
20260507234843 33 0.0 0.0 0.00 0.00 0.00 62 1006.5
20260507234343 33 0.0 0.0 0.00 0.00 0.00 61 1006.4
20260507233843 33 0.0 0.0 0.00 0.00 0.00 61 1006.5
20260507233344 33 0.0 0.0 0.00 0.00 0.00 61 1006.4
20260507232844 34 0.0 0.0 0.00 0.00 0.00 60 1006.4
20260507232343 34 0.0 0.0 0.00 0.00 0.00 60 1006.3
20260507231843 34 0.0 0.0 0.00 0.00 0.00 60 1006.3
20260507231344 34 0.0 0.0 0.00 0.00 0.00 59 1006.2
20260507230843 34 0.0 0.0 0.00 0.00 0.00 59 1006.2
20260507230343 34 0.0 0.0 0.00 0.00 0.00 59 1006.2
20260507225844 35 0.0 0.0 0.00 0.00 0.00 58 1006.2
20260507225343 35 0.0 0.0 0.00 0.00 0.00 59 1006.1
20260507224843 35 0.0 0.0 0.00 0.00 0.00 58 1006.0
20260507224343 35 0.0 0.0 0.00 0.00 0.00 58 1006.0
20260507223843 35 0.0 0.0 0.00 0.00 0.00 58 1006.0
20260507223343 35 0.0 0.0 0.00 0.00 0.00 58 1005.9
20260507222843 35 0.0 0.0 0.00 0.00 0.00 58 1005.8
20260507222343 35 0.0 0.0 0.00 0.00 0.00 57 1005.7
20260507221844 35 0.0 0.0 0.00 0.00 0.00 58 1005.6
20260507221343 35 0.0 0.0 0.00 0.00 0.00 58 1005.5
20260507220843 35 0.0 0.0 0.00 0.00 0.00 58 1005.5
20260507220343 35 0.0 0.0 0.00 0.00 0.00 58 1005.4
20260507215843 35 0.0 0.0 0.00 0.00 0.00 58 1005.3
20260507215343 35 0.0 0.0 0.00 0.00 0.00 58 1005.3
20260507214843 35 0.0 0.0 0.00 0.00 0.00 57 1005.2
20260507214343 35 0.0 0.0 0.00 0.00 0.00 57 1005.2
20260507213843 35 0.0 0.0 0.00 0.00 0.00 57 1005.2
20260507213343 35 0.0 0.0 0.00 0.00 0.00 57 1005.0
20260507212843 35 0.0 0.0 0.00 0.00 0.00 57 1005.1
20260507212342 35 0.0 0.0 0.00 0.00 0.00 57 1005.1
20260507211843 35 0.0 0.0 0.00 0.00 0.00 57 1005.1
20260507211343 35 0.0 0.0 0.00 0.00 0.00 57 1005.1
20260507210843 35 0.0 0.0 0.00 0.00 0.00 57 1005.1
20260507210344 35 0.0 0.0 0.00 0.00 0.00 57 1005.0
20260507205842 36 0.0 0.0 0.00 0.00 0.00 56 1005.0
20260507205343 36 0.0 0.0 0.00 0.00 0.00 56 1004.9
20260507204843 36 0.0 0.0 0.00 0.00 0.00 56 1004.8
20260507204343 35 0.0 0.0 0.00 0.00 0.00 56 1004.8
20260507203843 35 0.0 0.0 0.00 0.00 0.00 57 1004.7
20260507203343 35 0.0 0.0 0.00 0.00 0.00 57 1004.7
20260507202843 35 0.0 0.0 0.00 0.00 0.00 57 1004.7
20260507202343 36 0.0 0.0 0.00 0.00 0.00 56 1004.7
20260507201843 35 0.0 0.0 0.00 0.00 0.00 57 1004.8
20260507201343 36 0.0 0.0 0.00 0.00 0.00 56 1004.9
20260507200842 35 0.0 0.0 0.00 0.00 0.00 57 1005.0
20260507200344 36 0.0 0.0 0.00 0.00 0.00 56 1004.9
20260507195842 36 0.0 0.0 0.00 0.00 0.00 56 1004.9
20260507195343 36 0.0 0.0 0.00 0.00 0.00 56 1004.8
20260507194843 36 0.0 0.0 0.00 0.00 0.00 56 1004.8
20260507194351 36 0.0 0.0 0.00 0.00 0.00 56 1004.8
20260507193843 36 0.0 0.0 0.00 0.00 0.00 56 1004.7
20260507193343 36 0.0 0.0 0.00 0.00 0.00 55 1004.7
20260507192843 36 0.0 0.0 0.00 0.00 0.00 55 1004.7
20260507192343 36 0.0 0.0 0.00 0.00 0.00 56 1004.8
20260507191843 36 0.0 0.0 0.00 0.00 0.00 56 1004.8
20260507191343 36 0.0 0.0 0.00 0.00 0.00 55 1004.8
20260507190843 36 0.0 0.0 0.00 0.00 0.00 55 1004.9
20260507190343 36 0.0 0.0 0.00 0.00 0.00 55 1005.1
20260507185842 36 0.0 0.0 0.00 0.00 0.00 55 1005.1
20260507185343 36 0.0 0.0 0.00 0.00 0.00 55 1005.1
20260507184842 36 0.0 0.0 0.00 0.00 0.00 55 1005.2
20260507184342 36 0.0 0.0 0.00 0.00 0.00 55 1005.3
20260507183842 36 0.0 0.0 0.00 0.00 0.00 55 1005.3
20260507183343 36 0.0 0.0 0.00 0.00 0.00 55 1005.5
20260507182843 36 0.0 0.0 0.00 0.00 0.00 55 1005.5
20260507182343 36 0.0 0.0 0.00 0.00 0.00 56 1005.7
20260507181843 36 0.0 0.0 0.00 0.00 0.00 56 1005.8
20260507181343 36 0.0 0.0 0.00 0.00 0.00 56 1005.7
20260507180843 36 0.0 0.0 0.00 0.00 0.00 55 1005.9
20260507180343 36 0.0 0.0 0.00 0.00 0.00 55 1005.8
20260507175843 36 0.0 0.0 0.00 0.00 0.00 55 1005.9
20260507175343 36 0.0 0.0 0.00 0.00 0.00 56 1005.9
20260507174843 36 0.0 0.0 0.00 0.00 0.00 56 1006.0
20260507174343 36 0.0 0.0 0.00 0.00 0.00 55 1006.1
20260507173843 36 0.0 0.0 0.00 0.00 0.00 56 1006.2
20260507173343 36 0.0 0.0 0.00 0.00 0.00 56 1006.3
20260507172843 36 0.0 0.0 0.00 0.00 0.00 56 1006.2
20260507172343 36 0.0 0.0 0.00 0.00 0.00 56 1006.1
20260507171843 36 0.0 0.0 0.00 0.00 0.00 57 1006.2
20260507171344 36 0.0 0.0 0.00 0.00 0.00 58 1006.2
20260507170842 36 0.0 0.0 0.00 0.00 0.00 58 1006.4
20260507170342 36 0.0 0.0 0.00 0.00 0.00 58 1006.4
20260507165843 35 0.0 0.0 0.00 0.00 0.00 59 1006.5
20260507165343 34 0.0 0.0 0.00 0.00 0.00 63 1006.6
20260507164843 34 0.0 0.0 0.00 0.00 0.00 64 1006.5
20260507164343 33 0.0 0.0 0.00 0.00 0.00 65 1006.5
20260507163842 33 0.0 0.0 0.00 0.00 0.00 65 1006.5
20260507163342 33 0.0 0.0 0.00 0.00 0.00 65 1006.7
20260507162843 33 0.0 0.0 0.00 0.00 0.00 66 1006.7
20260507162342 33 0.0 0.0 0.00 0.00 0.00 66 1006.6
20260507161842 33 0.0 0.0 0.00 0.00 0.00 65 1006.6
20260507161342 33 0.0 0.0 0.00 0.00 0.00 65 1006.5
20260507160842 33 0.0 0.0 0.00 0.00 0.00 64 1006.4
20260507160342 33 0.0 0.0 0.00 0.00 0.00 65 1006.4
20260507155843 33 0.0 0.0 0.00 0.00 0.00 64 1006.3
20260507155342 33 0.0 0.0 0.00 0.00 0.00 64 1006.5
20260507154842 33 0.0 0.0 0.00 0.00 0.00 65 1006.4
20260507154342 33 0.0 0.0 0.00 0.00 0.00 64 1006.4
20260507153843 33 0.0 0.0 0.00 0.00 0.00 64 1006.3
20260507153550 33 0.0 0.0 0.00 0.00 0.00 63 1006.4
20260507153342 33 0.0 0.0 0.00 0.00 0.00 63 1006.4
20260507153147 33 0.0 0.0 0.00 0.00 0.00 63 1006.4
20260507152842 33 0.0 0.0 0.00 0.00 0.00 63 1006.4
20260507152555 33 0.0 0.0 0.00 0.00 0.00 63 1006.3
20260507152342 33 0.0 0.0 0.00 0.00 0.00 63 1006.3
20260507151842 33 0.0 0.0 0.00 0.00 0.00 63 1006.3
20260507151342 33 0.0 0.0 0.00 0.00 0.00 63 1006.3
20260507150842 33 0.0 0.0 0.00 0.00 0.00 63 1006.3
20260507150342 33 0.0 0.0 0.00 0.00 0.00 62 1006.2
20260507145842 33 0.0 0.0 0.00 0.00 0.00 63 1006.3
20260507145342 33 0.0 0.0 0.00 0.00 0.00 62 1006.3
20260507144842 34 0.0 0.0 0.00 0.00 0.00 63 1006.2
20260507144342 34 0.0 0.0 0.00 0.00 0.00 63 1006.1
20260507143842 34 0.0 0.0 0.00 0.00 0.00 63 1006.0
20260507143342 34 0.0 0.0 0.00 0.00 0.00 63 1005.8
20260507142843 34 0.0 0.0 0.00 0.00 0.00 62 1005.7
20260507142341 34 0.0 0.0 0.00 0.00 0.00 63 1005.7
20260507141842 34 0.0 0.0 0.00 0.00 0.00 63 1005.5
20260507141342 34 0.0 0.0 0.00 0.00 0.00 63 1005.6
20260507140842 34 0.0 0.0 0.00 0.00 0.00 63 1005.5
20260507140342 34 0.0 0.0 0.00 0.00 0.00 62 1005.2
20260507135842 34 0.0 0.0 0.00 0.00 0.00 62 1005.3
20260507135342 34 0.0 0.0 0.00 0.00 0.00 63 1005.2
20260507134842 34 0.0 0.0 0.00 0.00 0.00 63 1005.1
20260507134342 34 0.0 0.0 0.00 0.00 0.00 63 1005.0
20260507133842 34 0.0 0.0 0.00 0.00 0.00 63 1004.9
20260507133342 34 0.0 0.0 0.00 0.00 0.00 64 1004.9
20260507132842 34 0.0 0.0 0.00 0.00 0.00 63 1004.8
20260507132342 34 0.0 0.0 0.00 0.00 0.00 63 1004.6
20260507131842 34 0.0 0.0 0.00 0.00 0.00 63 1004.5
20260507131343 34 0.0 0.0 0.00 0.00 0.00 63 1004.7
20260507130843 34 0.0 0.0 0.00 0.00 0.00 63 1004.6
20260507130342 34 0.0 0.0 0.00 0.00 0.00 63 1004.6
20260507125842 34 0.0 0.0 0.00 0.00 0.00 63 1004.5
20260507125342 34 0.0 0.0 0.00 0.00 0.00 63 1004.4
20260507124842 34 0.0 0.0 0.00 0.00 0.00 62 1004.4
20260507124342 34 0.0 0.0 0.00 0.00 0.00 63 1004.1
20260507123842 34 0.0 0.0 0.00 0.00 0.00 62 1004.0
20260507123343 34 0.0 0.0 0.00 0.00 0.00 62 1004.0
20260507122842 35 0.0 0.0 0.00 0.00 0.00 61 1003.7
20260507122342 34 0.0 0.0 0.00 0.00 0.00 61 1003.4
20260507121843 34 0.0 0.0 0.00 0.00 0.00 62 1003.3
20260507121342 34 0.0 0.0 0.00 0.00 0.00 63 1003.3
20260507120842 34 0.0 0.0 0.00 0.00 0.00 63 1003.1
20260507120341 34 0.0 0.0 0.00 0.00 0.00 64 1003.1
20260507115843 34 0.0 0.0 0.00 0.00 0.00 63 1003.1
20260507115342 34 0.0 0.0 0.00 0.00 0.00 63 1003.0
20260507114843 34 0.0 0.0 0.00 0.00 0.00 63 1002.9
20260507114342 35 0.0 0.0 0.00 0.00 0.00 63 1002.8
20260507113842 35 0.0 0.0 0.00 0.00 0.00 63 1002.8
20260507113342 35 0.0 0.0 0.00 0.00 0.00 63 1002.8
20260507112841 35 0.0 0.0 0.00 0.00 0.00 62 1002.7
20260507112341 35 0.0 0.0 0.00 0.00 0.00 62 1002.8
20260507111842 35 0.0 0.0 0.00 0.00 0.00 63 1002.7
20260507111342 35 0.0 0.0 0.00 0.00 0.00 62 1002.6
20260507110842 35 0.0 0.0 0.00 0.00 0.00 62 1002.6
20260507110342 35 0.0 0.0 0.00 0.00 0.00 63 1002.5
20260507105842 35 0.0 0.0 0.00 0.00 0.00 62 1002.2
20260507105341 35 0.0 0.0 0.00 0.00 0.00 62 1002.3
20260507104841 35 0.0 0.0 0.00 0.00 0.00 62 1002.1
20260507104342 35 0.0 0.0 0.00 0.00 0.00 62 1002.0
20260507103842 35 0.0 0.0 0.00 0.00 0.00 62 1001.9
20260507103342 35 0.0 0.0 0.00 0.00 0.00 61 1001.9
20260507102842 35 0.0 0.0 0.00 0.00 0.00 62 1002.0
20260507102342 35 0.0 0.0 0.00 0.00 0.00 62 1002.0
20260507101841 34 0.0 0.0 0.00 0.00 0.00 63 1001.9
20260507101342 35 0.0 0.0 0.00 0.00 0.00 63 1002.0
20260507100842 35 0.0 0.0 0.00 0.00 0.00 63 1001.9
20260507100341 35 0.0 0.0 0.00 0.00 0.00 63 1001.9
20260507095844 35 0.0 0.0 0.00 0.00 0.00 64 1001.9
20260507095342 34 0.0 0.0 0.00 0.00 0.00 65 1001.8
20260507094841 34 0.0 0.0 0.00 0.00 0.00 64 1001.9
20260507094342 34 0.0 0.0 0.00 0.00 0.00 64 1001.8
20260507093842 35 0.0 0.0 0.00 0.00 0.00 59 1001.8
20260507093341 34 0.0 0.0 0.00 0.00 0.00 57 1001.7
20260507092842 35 0.0 0.0 0.00 0.00 0.00 58 1001.6
20260507092341 35 0.0 0.0 0.00 0.00 0.00 58 1001.7
20260507091841 35 0.0 0.0 0.00 0.00 0.00 57 1001.6
20260507091342 36 0.0 0.0 0.00 0.00 0.00 53 1001.7
20260507090842 36 0.0 0.0 0.00 0.00 0.00 55 1001.3
20260507090341 36 0.0 0.0 0.00 0.00 0.00 55 1001.3
20260507085841 36 0.0 0.0 0.00 0.00 0.00 54 1001.5
20260507085342 36 0.0 0.0 0.00 0.00 0.00 53 1001.4
20260507084842 36 0.0 0.0 0.00 0.00 0.00 55 1001.0
20260507084342 36 0.0 0.0 0.00 0.00 0.00 55 1000.6
20260507083842 36 0.0 0.0 0.00 0.00 0.00 56 1000.5
20260507083341 36 0.0 0.0 0.00 0.00 0.00 55 1000.5
20260507082841 36 0.0 0.0 0.00 0.00 0.00 55 1000.8
20260507082340 36 0.0 0.0 0.00 0.00 0.00 56 1000.9
20260507081841 36 0.0 0.0 0.00 0.00 0.00 56 1001.1
20260507081341 36 0.0 0.0 0.00 0.00 0.00 56 1001.2
20260507080842 36 0.0 0.0 0.00 0.00 0.00 55 1001.3
20260507080341 36 0.0 0.0 0.00 0.00 0.00 55 1001.5
20260507075841 36 0.0 0.0 0.00 0.00 0.00 56 1001.5
20260507075341 36 0.0 0.0 0.00 0.00 0.00 57 1001.4
20260507074842 36 0.0 0.0 0.00 0.00 0.00 56 1001.6
20260507074341 36 0.0 0.0 0.00 0.00 0.00 56 1001.8
20260507073841 36 0.0 0.0 0.00 0.00 0.00 55 1001.8
20260507073341 36 0.0 0.0 0.00 0.00 0.00 55 1001.8
20260507072841 35 0.0 0.0 0.00 0.00 0.00 57 1002.0
20260507072341 36 0.0 0.0 0.00 0.00 0.00 57 1002.1
20260507071842 35 0.0 0.0 0.00 0.00 0.00 57 1002.3
20260507071342 35 0.0 0.0 0.00 0.00 0.00 57 1002.4
20260507070841 36 0.0 0.0 0.00 0.00 0.00 57 1002.5
20260507070342 35 0.0 0.0 0.00 0.00 0.00 58 1002.5
20260507065841 35 0.0 0.0 0.00 0.00 0.00 57 1002.7
20260507065341 35 0.0 0.0 0.00 0.00 0.00 57 1002.8
20260507064841 35 0.0 0.0 0.00 0.00 0.00 58 1002.9
20260507064342 35 0.0 0.0 0.00 0.00 0.00 57 1003.1
20260507063841 35 0.0 0.0 0.00 0.00 0.00 55 1003.0
20260507063341 35 0.0 0.0 0.00 0.00 0.00 56 1003.0
20260507062841 35 0.0 0.0 0.00 0.00 0.00 57 1003.0
20260507062341 35 0.0 0.0 0.00 0.00 0.00 57 1003.2
20260507061841 35 0.0 0.0 0.00 0.00 0.00 57 1003.3
20260507061340 35 0.0 0.0 0.00 0.00 0.00 57 1003.5
20260507060840 35 0.0 0.0 0.00 0.00 0.00 56 1003.6
20260507060340 35 0.0 0.0 0.00 0.00 0.00 56 1003.8
20260507055841 35 0.0 0.0 0.00 0.00 0.00 57 1003.8
20260507055341 35 0.0 0.0 0.00 0.00 0.00 58 1004.0
20260507054841 35 0.0 0.0 0.00 0.00 0.00 59 1004.2
20260507054341 35 0.0 0.0 0.00 0.00 0.00 59 1004.3
20260507053841 35 0.0 0.0 0.00 0.00 0.00 60 1004.4
20260507053341 35 0.0 0.0 0.00 0.00 0.00 60 1004.5
20260507052842 35 0.0 0.0 0.00 0.00 0.00 60 1004.7
20260507052342 35 0.0 0.0 0.00 0.00 0.00 60 1004.9
20260507051840 35 0.0 0.0 0.00 0.00 0.00 60 1005.1
20260507051341 35 0.0 0.0 0.00 0.00 0.00 60 1005.2
20260507050840 35 0.0 0.0 0.00 0.00 0.00 60 1005.2
20260507050340 35 0.0 0.0 0.00 0.00 0.00 61 1005.2
20260507045841 34 0.0 0.0 0.00 0.00 0.00 62 1005.4
20260507045341 34 0.0 0.0 0.00 0.00 0.00 62 1005.5